This demonstration page uses our WeatherBlox Daily Observations layout. Learn more.

Left ArrowRight Arrow

39.01783, -85.05884

Hourly Observations for March 12, 2018

Temp ( °F °C ) Dew Point ( °F °C ) Humidity (%) Winds ( mph kmh ) Pressure ( in mb ) Visibility ( mi km ) Precip ( " mm )
12:52 am 00:52 Cloudy 36 2.2 25 -3.9 64 64 NNE 20 31 30.00 1016 10 16 N/A
1:52 am 01:52 Cloudy 36 2.2 21 -6.1 55 55 N 18 30 30.00 1016 10 16 N/A
2:52 am 02:52 Cloudy 35 1.7 20 -6.7 54 54 NNE 18 30 30.01 1016 10 16 N/A
3:52 am 03:52 Cloudy 34 1.1 21 -6.1 59 59 NNE 26 43 29.97 1015 10 16 N/A
4:52 am 04:52 Cloudy 33 0.6 21 -6.1 61 61 N 14 22 29.98 1015 10 16 N/A
5:52 am 05:52 Mostly Cloudy 31 -0.6 21 -6.1 67 67 N 13 20 30.00 1016 10 16 N/A
6:52 am 06:52 Partly Cloudy 29 -1.7 22 -5.6 75 75 N 12 19 30.01 1016 10 16 N/A
7:52 am 07:52 Mostly Clear 28 -2.2 22 -5.6 78 78 N 14 22 30.03 1017 10 16 N/A
8:52 am 08:52 Sunny 29 -1.7 22 -5.6 75 75 N 12 19 30.03 1017 10 16 N/A
9:52 am 09:52 Sunny 32 undefined 21 -6.1 64 64 N 12 19 30.04 1017 10 16 N/A
10:52 am 10:52 Sunny 35 1.7 21 -6.1 57 57 N 12 19 30.04 1017 10 16 N/A
11:52 am 11:52 Mostly Sunny 39 3.9 21 -6.1 48 48 NW 16 26 30.04 1017 10 16 N/A
12:52 pm 12:52 Cloudy 40 4.4 22 -5.6 49 49 NNW 15 24 30.03 1017 10 16 N/A
1:52 pm 13:52 Mostly Cloudy 41 5 23 -5 49 49 WNW 13 20 30.02 1017 10 16 N/A
2:52 pm 14:52 Cloudy 42 5.6 22 -5.6 45 45 NW 16 26 30.01 1016 10 16 N/A
3:52 pm 15:52 Cloudy 41 5 26 -3.3 55 55 W 21 33 30.01 1016 10 16 N/A
4:52 pm 16:52 Cloudy 40 4.4 28 -2.2 63 63 NW 15 24 30.01 1016 10 16 N/A
5:52 pm 17:52 Cloudy 39 3.9 27 -2.8 62 62 NW 15 24 30.03 1017 10 16 N/A
6:52 pm 18:52 Cloudy 38 3.3 30 -1.1 73 73 WNW 13 20 30.05 1018 9 14 N/A
7:52 pm 19:52 Cloudy 37 2.8 29 -1.7 73 73 WNW 15 24 30.06 1018 8 13 N/A
8:29 pm 20:29 Cloudy 37 2.8 29 -1.7 73 73 WNW 13 20 30.09 1019 10 16 N/A
8:52 pm 20:52 Cloudy 37 2.8 29 -1.7 73 73 WNW 12 19 30.09 1019 10 16 N/A
9:52 pm 21:52 Partly Cloudy 34 1.1 30 -1.1 85 85 WNW 7 11 30.09 1019 8 13 N/A
10:52 pm 22:52 Clear 33 0.6 30 -1.1 89 89 WNW 9 15 30.10 1019 8 13 N/A
11:52 pm 23:52 Clear 31 -0.6 28 -2.2 89 89 W 9 15 30.10 1019 7 11 N/A

Powered by AerisWeather